User: anonymous   Login
Location: Newark
(40.7360°N, 74.1730°W)
Time: 05:48:02
(UTC-04:00)
Language:

ISS - Orbit

View from above orbital plane
View from above orbital plane
View from above satellite
View from above satellite

Ground track
Ground track

The orbit data is extracted from the following two-line orbital elements,

1 25544U 98067A   15182.86534257  .00006297  00000-0  97500-4 0  9996
2 25544 051.6454 010.7253 0003246 117.1580 319.4915 15.55467266950321
Epoch (UTC): 01 July 2015 20:46:05
Eccentricity: 0.0003246
inclination: 51.6454°
perigee height: 398 km
apogee height: 403 km
right ascension of ascending node: 10.7253°
argument of perigee: 117.1580°
revolutions per day: 15.55467266
mean anomaly at epoch: 319.4915°
orbit number at epoch: 95032

The dashed part of the orbit path shows where the satellite is in the earth's shadow,  

DLR